CAPE
0 0 0 0 0 0 0 0 1 12 33 41 7 2 84 273 48 112 962 1066 468 324 1334 1547 1511 1460 1192 991 1285 1023 942 1046 1067 1112 1127 1127 1205 1503 1580 1734 1823 1884 1867 1892 1948 1465 1692 1842 1751 1946 1999 2289 2378 2670 2700 3055 3244 3352 3374 3354 3361 3178 3021 2862 3130 3169 3061 3049 2977 2628 2084 2356 2412 1995 1508 1430 1392 1407 1376 1308 974 920 1035 1130 1601 2006 2030
1 5 0 0 0 0 0 0 0 2 13 179 106 120 203 456 1079 514 290 1024 732 1252 1520 1543 1536 1294 1016 1003 1037 956 927 1018 1025 1187 1123 1121 1199 1232 1320 1696 1786 1591 1844 1800 1573 1785 1770 1672 1651 1672 1648 1459 2206 2332 2552 2520 2942 3069 3337 3256 3429 3128 2988 2926 3079 3299 3378 3427 3470 3805 3194 2816 2881 2730 2351 2097 1951 1940 1977 1961 1709 1668 1592 1602 1662 1802 2062
1 0 5 1 2 0 0 0 0 0 50 171 147 177 419 129 325 625 374 911 1557 1635 1722 1574 1395 1139 1030 957 920 1062 1024 1006 1033 1220 1266 1274 1371 1194 1469 1378 1114 1155 1572 1466 1558 1459 1547 1708 1672 1612 1627 1714 1606 1689 1977 1809 2229 2393 2565 2953 3190 2764 2940 3097 3394 3119 3264 3052 3533 4014 4117 3709 3517 3519 3488 3150 2754 2619 2367 2436 2358 2472 2271 1947 1757 1403 1424
0 0 0 1 2 6 3 0 3 32 1 159 246 458 595 449 781 865 952 1034 1197 1701 1618 1386 1110 1096 1018 1231 1242 1148 1086 1037 1078 1153 1154 1345 1376 1038 974 1030 1148 1121 1109 1155 1128 1125 1104 1153 1195 1169 1214 1448 1618 1710 1710 1759 2067 1925 2001 2397 2632 2636 3149 2820 2944 2924 2582 2384 2407 2589 2949 3576 4402 4013 3898 3887 3921 3613 3024 2690 2796 2560 2381 2069 2118 1697 1357
0 0 0 0 1 3 3 63 120 363 182 93 277 523 784 926 739 536 481 831 973 1572 1431 1245 1082 1147 1077 928 1044 1197 1170 1289 1117 1272 1267 1300 1200 873 963 1084 1186 1239 1253 1218 1256 1198 1140 1130 1094 1049 999 1212 1519 1700 1714 1936 1572 2028 1721 1770 1813 2031 1779 2074 1987 2002 1912 1901 1750 1771 2036 2491 3169 3656 3676 3745 3603 3365 3045 2980 2698 2558 2325 2194 2348 2214 1729
0 0 0 0 0 4 52 43 432 470 401 479 486 275 430 649 971 845 865 920 1170 1187 1287 1166 1103 1051 1190 1173 1383 1178 1387 1409 1265 1146 1032 1058 1000 927 969 953 922 952 922 883 898 964 1022 1075 1099 1077 1021 991 979 1145 1309 1289 1428 1529 1596 1624 1725 1720 1694 1769 1867 1718 1870 1759 2047 2118 1956 2057 2421 2780 2497 2187 2349 2016 2063 2586 2523 2546 2206 2138 2137 2380 2369
0 0 1 0 0 31 28 42 49 172 419 306 473 1057 705 686 898 854 831 933 1108 1218 1152 1139 1017 1143 1177 1052 1217 1084 1158 1109 1118 1264 1092 832 742 799 887 911 870 834 804 755 689 668 608 576 567 613 604 635 720 810 842 983 1033 1261 1331 1431 1382 1410 1535 1649 1708 1689 1737 1780 1750 1710 1605 1664 1683 1512 1497 1421 1433 1538 1718 1677 1938 2312 2147 2181 2049 2259 2439
0 0 2 2 0 38 58 32 26 24 238 67 312 552 735 692 698 682 928 1095 1180 1416 1259 1081 1132 1279 1266 1100 1077 991 980 941 869 812 770 870 954 904 745 709 756 765 736 700 703 647 524 524 487 511 524 533 590 656 720 753 738 937 998 929 1097 1243 1112 2123 2259 2228 2163 2051 1729 1563 1480 1435 862 804 897 1026 1233 1367 1023 1031 1716 1856 2286 2159 2182 2257 2454
0 0 0 0 128 133 62 187 137 32 25 24 248 816 722 409 714 808 1148 1176 1162 1178 1139 1198 1185 1127 923 1105 934 792 842 823 812 767 739 676 623 558 566 648 714 700 656 640 561 450 464 487 504 451 540 534 476 519 568 640 688 732 794 845 816 829 875 831 1129 1379 1147 903 855 830 715 583 571 701 773 855 940 964 794 1391 1639 1923 1488 1594 1940 2024 1707
37 0 0 0 0 31 390 142 78 53 93 170 355 94 782 121 296 614 972 1049 951 1066 1069 1025 1102 954 834 1041 967 674 676 838 755 621 696 666 559 489 576 638 622 560 489 370 232 198 393 472 430 415 399 542 479 440 622 679 682 719 673 666 695 685 584 729 670 665 627 517 596 596 628 648 679 698 675 733 817 826 846 962 980 1149 1244 1246 1042 1216 1232
64 24 0 0 0 243 107 118 96 86 189 287 548 447 686 78 63 567 744 915 990 1038 996 988 772 932 1100 1166 1124 614 638 714 633 640 555 482 417 408 409 411 392 268 196 176 93 49 91 249 300 256 311 502 454 418 340 488 561 468 376 549 509 250 493 543 622 620 628 565 621 660 679 757 709 677 658 679 717 769 734 751 812 918 913 860 841 850 822
16 42 35 1 0 186 182 114 173 89 140 496 392 388 518 135 62 580 806 737 1131 1021 1062 926 761 975 1161 1226 955 613 566 548 651 494 449 411 386 350 331 291 248 225 159 110 61 24 0 80 238 155 190 285 315 331 392 314 314 343 336 408 416 320 227 120 345 342 566 506 423 392 391 415 405 492 479 497 629 681 678 604 685 780 804 822 803 673 647
32 0 0 30 108 167 139 175 173 157 132 173 432 245 246 37 77 140 550 812 798 1107 1021 827 1056 1113 1167 1154 793 568 477 440 440 415 342 306 326 329 275 266 217 190 178 28 0 0 0 0 150 204 187 196 222 233 315 350 276 217 74 71 255 370 360 399 276 253 294 295 315 278 181 146 179 200 74 243 432 532 512 559 552 615 622 639 584 545 576
62 50 0 11 199 146 172 206 285 159 270 583 132 52 39 112 206 243 460 683 759 1079 1113 1063 903 938 889 782 679 534 402 347 68 85 259 326 265 168 179 154 166 243 244 169 130 63 76 7 181 179 198 182 181 172 228 280 316 185 204 157 199 247 223 0 169 165 2 15 234 244 226 101 0 0 0 0 0 0 188 237 246 332 400 405 388 370 329
28 48 9 1 0 371 168 255 459 130 338 51 39 100 146 251 316 423 573 727 927 1049 1227 1037 1171 829 911 649 436 400 265 134 79 171 229 194 196 52 94 80 128 199 205 158 150 84 48 25 20 98 219 207 179 166 153 204 286 268 228 195 193 120 135 98 11 54 0 0 49 172 172 91 0 0 0 0 0 0 121 167 245 301 195 189 227 226 182
213 276 113 59 388 319 204 282 331 202 101 59 117 154 256 392 489 536 562 752 989 916 984 1203 1012 875 699 653 411 418 324 76 68 154 209 92 86 37 6 22 22 63 119 109 118 150 64 33 64 113 107 100 104 112 106 91 122 182 221 212 193 178 158 110 4 17 124 26 0 0 0 0 0 0 0 0 0 0 0 53 147 116 0 108 165 174 144
464 680 569 491 384 353 252 260 256 247 172 154 147 235 342 447 537 462 564 769 852 996 1195 1038 830 839 649 466 193 147 180 103 14 107 95 124 180 92 89 2 1 5 7 13 11 4 8 35 47 90 100 137 135 102 99 86 99 114 128 130 154 179 49 0 70 108 94 122 128 0 0 0 0 0 0 0 0 1 0 0 3 3 34 30 3 15 1
205 238 315 366 457 387 359 260 219 202 195 204 197 284 324 395 408 557 623 539 730 775 930 759 650 712 585 105 196 33 44 118 81 91 97 33 58 26 66 0 0 0 0 1 1 4 4 9 6 12 24 46 90 72 80 92 107 108 116 137 153 152 144 163 146 71 0 94 64 0 0 0 30 94 105 0 0 0 0 1 2 0 0 1 0 0 0
110 244 442 495 418 425 358 326 266 187 182 271 242 210 280 319 378 397 508 511 613 806 928 832 592 584 422 333 225 30 41 40 42 5 8 18 8 10 33 11 4 0 0 0 0 0 0 0 1 3 7 56 54 37 8 52 68 79 87 85 96 105 149 141 14 0 0 0 0 0 0 0 0 0 0 0 0 0 9 4 0 0 0 0 0 1 2
309 508 406 532 339 315 372 303 324 224 191 301 304 187 141 180 367 388 440 498 522 565 768 630 600 469 426 370 260 186 92 36 39 52 83 81 21 8 1 12 4 2 0 0 0 0 0 0 0 0 1 1 2 2 27 30 55 53 114 117 116 117 90 56 0 0 0 0 0 0 0 0 0 0 0 0 0 1 0 1 13 6 1 1 0 2 2
470 192 349 528 539 424 483 294 270 259 215 278 328 262 228 115 170 336 464 440 437 428 603 613 521 504 336 202 27 88 0 11 18 0 52 115 110 32 8 1 9 11 3 0 0 0 3 2 3 0 1 0 1 3 0 2 9 12 12 63 67 110 3 2 2 1 0 0 0 0 0 0 0 0 0 0 0 0 0 0 0 0 1 0 0 0 0
132 204 464 348 330 269 737 319 272 165 184 292 383 348 255 197 189 215 350 347 417 360 312 442 413 370 309 219 28 38 72 1 1 1 18 23 18 7 1 0 0 0 0 0 0 0 0 0 1 0 1 3 3 3 7 8 9 10 12 9 86 93 43 34 7 2 1 0 2 0 0 0 0 0 0 0 0 0 0 0 0 0 0 0 0 0 0
37 477 434 311 420 371 308 210 211 200 229 307 286 328 381 259 169 179 287 256 393 380 350 25 330 310 180 106 18 1 0 1 0 2 86 21 8 14 0 0 0 0 0 0 0 0 0 0 0 3 7 8 11 11 11 13 10 10 10 11 10 12 9 10 10 11 9 12 9 8 9 6 0 0 0 0 0 0 0 0 0 0 0 0 0 0 0
288 252 289 229 205 217 168 187 161 237 222 172 251 215 334 416 248 162 299 291 290 382 322 335 111 292 216 104 77 29 1 0 0 0 0 0 0 2 3 2 1 0 0 1 4 0 0 0 0 0 0 3 8 8 14 16 17 15 12 13 28 8 11 13 11 17 18 23 20 18 14 17 14 12 7 2 0 0 0 0 0 0 0 0 0 0 0
264 300 334 342 326 285 200 169 172 183 173 142 152 174 197 351 368 173 214 313 251 213 348 329 347 366 284 163 71 150 44 0 0 0 0 0 0 0 0 0 0 2 5 0 1 5 5 5 1 1 3 2 4 3 8 4 18 20 14 14 17 24 25 23 22 24 25 24 25 20 20 20 13 16 13 9 4 4 0 0 0 0 0 0 0 0 0
186 280 337 317 289 249 169 212 231 207 164 189 205 170 222 267 235 220 200 152 313 222 232 333 315 339 285 234 189 220 131 13 2 0 9 0 4 0 0 0 0 0 0 0 0 0 1 6 5 2 5 4 6 7 6 7 12 20 21 14 22 27 29 25 27 24 20 31 26 21 18 15 13 7 8 9 10 8 3 2 0 0 0 0 0 0 0
272 236 274 278 205 133 217 206 114 131 129 124 136 212 298 275 290 312 209 127 93 247 234 247 320 383 287 184 175 101 187 60 6 4 0 0 0 0 2 0 0 0 0 0 0 0 0 0 0 1 1 1 1 3 5 10 10 18 21 21 18 2 6 19 24 21 21 16 18 25 19 18 14 12 9 10 10 11 8 7 4 5 6 3 0 0 0
229 131 225 135 106 105 190 122 57 85 55 74 99 162 242 284 290 368 274 210 145 145 179 157 233 261 301 236 176 136 54 120 133 80 32 0 0 0 1 0 0 0 0 0 0 0 0 0 0 0 0 0 0 0 0 3 10 14 13 13 16 13 10 8 15 23 22 9 12 20 24 20 16 10 9 10 5 6 7 8 5 5 5 11 4 0 0
37 3 1 10 23 39 80 122 52 37 42 58 94 144 180 138 130 171 266 250 132 137 113 96 157 119 187 175 157 105 100 99 107 89 52 7 0 0 0 1 4 2 0 0 0 0 0 0 0 0 0 0 0 0 0 2 8 9 16 16 13 14 14 12 11 11 11 10 10 8 0 4 13 16 14 12 10 4 5 5 5 7 5 13 14 6 0
0 0 0 0 1 60 83 5 0 0 0 0 4 23 35 56 138 118 114 148 193 155 118 62 77 167 133 42 46 76 135 95 117 54 38 22 0 0 0 1 3 1 0 0 0 0 2 0 0 2 2 0 0 0 0 4 8 9 9 10 8 11 11 14 11 8 9 12 9 0 3 7 13 16 12 12 7 6 4 4 3 2 2 3 0 1 1
3 0 2 2 2 0 0 0 0 12 1 0 0 0 0 0 22 45 79 78 127 91 90 92 87 76 107 105 109 64 28 146 159 161 81 17 21 6 2 7 4 0 0 0 0 3 12 11 2 0 0 0 0 0 0 0 3 7 8 8 5 0 0 0 2 9 6 7 5 2 4 5 6 8 10 4 3 2 2 4 2 0 0 0 0 0 0
0 2 5 4 0 0 0 0 0 0 0 0 0 0 0 0 0 0 0 3 63 12 50 62 93 141 108 67 83 120 126 168 120 54 20 3 6 2 20 25 17 8 8 4 0 0 8 7 1 1 3 0 0 0 0 0 0 0 0 2 1 0 1 0 0 2 4 2 1 0 1 0 0 7 6 6 2 2 1 0 0 0 1 0 0 0 4
8 2 3 1 0 0 0 0 0 0 0 0 0 0 0 0 0 0 0 0 2 22 28 47 70 112 71 59 56 54 66 76 129 159 96 9 39 25 99 17 12 15 15 1 0 0 0 0 0 0 1 0 0 0 0 0 0 0 1 0 0 0 0 0 0 0 0 0 0 0 0 0 0 4 6 6 5 0 0 0 0 0 1 2 2 3 0
4 8 7 6 0 0 0 0 0 0 0 0 0 0 0 0 0 0 0 0 0 0 10 48 119 77 65 52 59 36 51 26 23 37 72 48 10 32 12 20 47 51 14 11 0 0 0 0 0 0 0 0 0 0 0 0 0 0 0 1 0 0 0 0 0 0 0 0 0 0 0 0 3 7 9 3 2 0 0 0 0 0 0 0 0 2 0
0 0 0 0 0 0 0 0 0 0 0 0 0 0 0 0 0 0 0 0 0 0 0 0 64 136 103 91 59 50 40 35 48 47 43 24 4 21 44 10 63 200 62 10 2 1 2 0 0 0 0 0 0 0 0 0 0 0 0 0 0 0 0 0 0 0 0 0 0 0 0 2 4 6 3 3 0 0 0 1 0 0 0 0 0 0 2
0 0 0 0 0 0 0 0 0 0 0 0 0 0 0 0 0 0 0 0 0 0 0 0 0 6 85 118 108 81 132 117 70 29 7 16 22 102 112 57 127 257 140 22 4 4 3 0 0 0 0 0 0 0 0 0 0 0 0 0 0 0 0 0 0 0 0 0 0 1 2 3 3 3 2 1 0 0 1 0 0 0 0 0 0 0 0
0 0 0 0 0 0 0 0 0 0 0 0 0 0 0 0 0 0 0 0 0 0 0 0 0 0 0 86 131 158 140 196 226 210 193 122 70 54 48 144 169 215 167 8 7 2 3 0 0 0 0 0 0 0 0 0 0 0 0 0 0 0 0 0 0 0 0 0 0 0 0 2 3 2 0 0 0 0 0 0 0 0 0 0 0 0 0
0 0 0 0 0 0 0 0 0 0 0 0 0 0 0 0 0 0 0 0 0 0 0 0 0 0 0 0 43 113 188 254 276 267 278 262 132 5 40 206 241 238 65 12 8 1 1 0 0 0 0 0 0 0 0 0 0 0 0 0 0 0 0 0 0 0 0 0 0 0 0 0 0 0 0 0 0 0 0 0 0 0 0 0 0 0 0
0 0 0 0 0 0 0 0 0 0 0 0 0 0 0 0 0 0 0 0 0 0 0 0 0 0 0 0 2 46 124 198 257 268 268 219 135 110 19 80 211 289 209 114 1 5 3 0 0 0 0 0 3 0 0 0 0 0 0 0 0 0 0 0 0 0 0 0 0 0 0 0 0 0 0 0 0 0 0 0 0 0 0 0 0 0 0
0 0 0 0 0 0 0 0 0 0 0 0 0 0 0 0 0 0 0 0 0 0 0 0 0 1 1 2 21 45 94 119 151 188 285 325 166 73 39 135 286 253 216 97 20 3 2 0 0 0 2 5 1 0 0 0 0 0 0 0 0 0 0 0 0 0 0 0 0 0 0 0 0 0 0 0 0 0 0 0 0 0 0 0 0 0 0
0 0 0 0 0 0 0 0 0 1 1 1 1 4 2 2 1 1 0 1 0 1 4 6 7 6 8 6 13 22 48 100 148 171 210 185 161 95 77 84 2 370 250 135 21 17 5 0 0 0 4 4 2 0 2 0 0 0 0 0 0 0 0 0 0 0 0 0 0 0 0 0 0 0 0 0 0 0 0 0 0 0 0 0 0 0 0
0 0 0 0 0 0 0 1 2 3 5 4 5 7 4 2 4 2 2 2 2 1 4 10 4 4 11 17 14 33 47 64 131 192 212 214 212 167 117 244 406 218 5 3 24 24 6 3 0 0 10 6 4 1 0 0 0 0 0 0 0 0 0 0 0 0 0 0 0 0 0 0 0 0 0 0 0 0 0 0 0 0 0 0 0 0 0
0 0 0 0 0 0 1 5 7 7 5 6 6 6 3 5 4 6 6 6 7 8 9 12 3 2 4 6 0 5 27 44 78 156 206 272 275 257 257 390 419 70 14 79 43 0 8 6 2 1 9 1 3 0 0 0 0 0 0 0 0 0 0 0 0 0 0 0 0 0 0 0 0 0 0 0 0 0 0 0 0 0 0 0 0 0 0
0 0 0 0 0 2 4 6 4 2 3 4 4 3 5 6 5 5 6 6 6 8 10 20 24 10 7 8 2 0 1 36 88 108 147 195 195 261 200 407 486 86 25 121 93 17 10 6 2 1 2 0 0 0 0 0 0 0 0 0 0 0 0 0 0 0 0 0 0 0 0 0 0 0 0 0 0 0 0 0 0 0 0 0 0 0 0
0 0 1 1 2 2 0 0 1 0 1 0 3 5 6 6 9 9 9 9 10 8 10 10 14 18 14 8 8 7 7 8 40 81 128 188 178 224 266 360 419 156 32 13 162 40 9 6 4 1 0 0 0 0 0 0 0 0 0 0 0 0 0 0 0 0 0 0 0 0 0 0 0 0 0 0 0 0 0 0 0 0 0 0 0 0 0
0 0 0 0 0 0 1 3 2 1 0 2 4 5 6 5 7 9 10 12 14 14 11 11 12 11 12 13 17 13 15 12 2 16 56 183 227 331 354 320 204 48 37 32 41 69 7 6 2 1 1 0 0 0 0 0 0 0 0 0 0 0 0 0 0 0 0 0 0 0 0 0 0 0 0 0 0 0 0 0 0 0 0 0 0 3 0
3 6 4 3 0 2 2 3 8 7 1 2 3 3 4 10 14 15 11 9 14 13 12 9 16 14 16 22 19 31 12 9 9 11 19 52 224 298 329 303 193 88 47 51 32 22 6 0 2 1 0 0 0 1 0 0 0 0 0 0 0 0 0 0 0 0 0 0 0 0 0 0 0 0 0 0 0 0 0 0 0 0 0 0 1 1 2
6 3 0 0 2 1 6 9 4 0 0 0 2 5 6 10 14 19 11 14 14 15 15 14 18 19 22 19 2 7 9 16 4 5 5 18 172 304 510 502 344 198 56 44 53 42 8 2 0 1 0 0 0 0 0 0 0 0 0 0 0 0 0 0 0 0 0 0 2 0 1 0 0 0 1 0 1 2 3 2 2 3 0 0 0 1 3
5 3 0 0 2 5 4 4 1 2 0 2 10 20 33 21 13 9 10 9 10 15 16 17 14 10 3 24 12 4 9 10 9 25 156 204 352 434 472 514 372 243 305 152 29 28 7 2 9 2 0 0 0 0 0 0 0 0 0 0 0 0 1 0 2 1 1 2 3 1 2 0 4 4 6 1 3 3 2 5 5 1 3 2 0 3 4
2 0 0 0 0 3 15 6 16 4 1 6 19 21 44 8 7 8 9 8 13 5 7 6 16 59 134 90 12 23 30 36 50 30 151 451 591 592 493 504 530 317 201 42 48 41 22 3 2 2 1 0 0 0 0 0 0 0 0 0 1 4 2 3 1 0 0 3 3 1 3 4 6 4 1 5 6 5 1 2 5 0 0 0 0 2 3
0 0 0 5 21 34 31 27 40 16 12 8 20 17 11 11 10 12 11 12 14 23 111 5 18 39 92 131 166 210 271 312 328 339 412 559 701 582 506 580 566 260 166 7 67 31 16 2 0 1 8 2 0 0 0 0 0 0 0 2 4 5 4 0 2 3 3 3 6 6 3 4 6 8 11 8 0 0 3 0 2 5 0 0 0 0 0
0 0 8 21 25 29 34 45 30 24 10 9 27 13 7 9 16 10 9 10 154 195 123 134 63 226 74 143 228 358 439 468 518 533 617 690 660 643 577 410 618 310 60 31 42 20 11 14 17 2 1 0 0 0 0 0 0 0 0 1 2 2 3 6 3 1 0 1 5 9 1 4 3 2 3 2 5 1 0 0 0 4 8 9 8 8 10
Wind_Speed
nan nan nan nan nan nan nan nan nan nan nan nan nan nan nan 38 nan 31 38 31 27 30 32 31 28 26 25 26 29 30 30 30 30 27 22 19 19 20 20 18 18 16 16 17 19 19 21 23 21 21 22 26 27 28 28 26 24 23 23 22 22 22 21 20 21 23 25 26 25 24 22 23 22 21 19 19 19 19 19 18 18 17 17 17 17 17 17
nan nan nan nan nan nan nan nan nan nan nan 34 33 33 37 37 40 37 31 28 25 34 38 37 36 32 29 28 27 26 27 28 29 27 22 20 23 24 24 24 23 21 20 21 19 19 19 19 20 20 20 21 24 26 27 25 24 25 25 22 23 23 22 21 22 23 25 28 29 27 26 25 24 23 21 20 20 20 20 20 20 21 21 21 20 20 20
nan nan nan nan nan nan nan nan nan nan nan 37 36 36 38 37 38 42 37 32 30 37 38 38 40 36 33 31 25 24 25 28 29 27 23 23 25 27 30 30 27 26 24 23 22 21 19 19 19 20 20 20 21 21 21 22 24 25 23 23 24 25 26 25 25 26 26 27 28 28 27 27 27 27 26 24 23 23 23 23 22 24 23 22 21 21 20
nan nan nan nan nan nan nan nan nan nan nan 36 40 37 40 37 39 40 38 36 38 42 37 38 35 33 32 31 28 26 24 25 28 28 26 28 31 32 32 32 32 32 33 33 32 31 30 29 29 28 26 23 20 21 22 23 26 28 25 24 26 27 30 29 29 30 28 27 25 25 25 27 29 31 31 30 29 28 26 25 25 24 24 23 23 22 23
nan nan nan nan nan nan nan nan 44 42 41 nan 36 39 40 41 38 33 34 45 41 41 40 37 34 31 31 30 28 27 24 23 26 27 27 29 31 32 33 34 34 34 34 35 35 34 32 28 27 27 25 23 21 21 21 25 27 29 27 26 27 28 30 31 31 31 30 28 27 27 27 27 29 33 34 34 32 30 30 30 29 26 26 26 25 24 23
nan nan nan nan nan nan nan nan 41 40 43 44 38 40 42 43 40 42 40 39 41 37 36 35 35 31 32 32 31 28 26 24 25 26 27 27 29 31 33 35 36 37 37 37 38 39 37 34 31 29 27 26 25 26 24 25 26 25 26 28 30 30 31 34 35 35 35 34 34 36 37 34 33 35 39 39 39 38 35 33 31 29 27 28 27 26 26
nan nan nan nan nan nan nan nan nan 40 40 44 40 38 41 42 41 41 40 40 36 34 33 34 33 33 34 34 34 31 30 27 26 25 30 32 32 27 30 33 35 36 38 39 40 40 39 39 38 36 35 34 35 35 35 36 30 27 28 30 31 32 33 32 33 35 35 34 33 35 38 38 40 43 45 43 41 38 36 35 31 29 28 30 30 29 30
nan nan nan nan nan nan nan nan nan nan 38 nan 41 35 44 46 44 41 40 43 38 35 34 33 34 32 34 34 36 36 32 31 30 29 33 35 32 30 31 33 36 37 37 39 40 41 40 39 40 40 40 39 39 39 39 39 38 36 33 31 33 35 36 39 38 36 36 37 36 34 35 38 41 42 43 43 41 37 39 40 37 36 34 33 34 33 33
nan nan nan nan 32 33 nan 35 40 nan nan nan 44 42 46 50 47 44 42 42 39 36 34 36 35 36 33 32 34 33 35 36 34 33 36 37 35 34 35 35 38 39 39 38 39 39 40 41 41 41 39 39 41 41 42 42 41 38 38 38 38 38 41 42 43 42 42 41 40 38 38 38 39 39 41 44 44 42 42 43 44 44 39 36 37 38 39
nan nan nan nan nan nan 36 40 nan nan nan 32 32 nan 40 52 51 46 42 41 41 38 35 33 31 31 30 28 31 32 36 35 36 37 43 42 39 37 38 39 41 42 40 39 38 39 41 41 40 39 38 37 39 40 41 42 43 43 41 40 37 38 40 42 43 42 41 42 42 41 39 39 39 39 40 39 38 39 45 50 52 50 46 44 42 40 41
nan nan nan nan nan 36 37 36 nan nan 38 36 32 29 34 nan nan 44 42 39 40 36 34 30 26 24 23 25 31 33 36 35 37 41 43 43 42 42 42 42 44 44 42 41 nan nan nan 41 39 39 39 38 38 40 42 43 45 45 44 42 40 39 40 41 40 37 35 34 36 37 36 36 36 34 33 36 39 39 43 49 54 51 47 46 47 43 43
nan nan nan nan nan 32 35 33 32 nan 35 33 31 30 37 43 nan 39 36 36 35 34 32 29 24 22 24 27 34 36 36 36 43 43 44 45 44 44 46 47 48 48 46 44 nan nan nan nan 38 38 38 38 39 39 40 41 43 44 44 43 42 42 42 42 42 42 37 35 35 36 37 36 33 30 28 30 32 32 31 35 45 49 48 45 47 44 44
nan nan nan nan 31 33 33 32 32 31 31 31 28 34 39 nan nan 33 33 31 30 30 30 28 26 26 33 36 41 39 39 40 45 45 45 45 45 46 48 50 50 48 46 nan nan nan nan nan 38 38 38 38 38 38 39 41 42 42 nan nan 41 40 41 41 40 42 42 40 38 37 35 34 33 31 nan 26 26 25 22 21 28 36 41 43 46 47 46
nan nan nan nan 35 31 26 29 29 32 23 27 33 nan nan 32 31 30 29 27 28 27 28 29 31 32 35 40 41 43 44 47 nan nan 48 48 47 50 52 50 48 48 48 47 45 nan nan nan 38 38 39 38 37 37 39 41 41 40 40 40 42 43 43 nan 38 40 nan nan 39 37 36 35 nan nan nan nan nan nan 25 22 24 28 30 33 38 42 43
nan nan nan nan nan 32 33 29 25 39 32 nan nan nan 30 32 32 31 30 28 29 28 26 26 31 32 33 38 36 41 43 47 nan 44 47 49 49 nan nan nan 50 49 47 45 44 nan nan nan nan nan 41 40 38 37 39 39 38 38 38 40 43 45 44 nan nan nan nan nan nan 36 36 nan nan nan nan nan nan nan 29 29 29 29 27 26 29 31 33
19 19 21 nan 30 28 32 33 32 32 33 nan 32 31 32 34 33 34 31 32 32 31 26 26 28 32 39 42 42 44 45 nan nan 46 46 nan nan nan nan nan nan nan 48 46 45 45 nan nan nan 41 41 nan 40 40 40 nan 37 37 37 39 41 43 43 42 nan nan 39 nan nan nan nan nan nan nan nan nan nan nan nan nan 29 28 nan 26 26 25 26
20 25 28 27 29 29 30 31 30 30 30 30 29 30 31 34 36 36 33 35 34 37 35 28 32 40 43 47 47 45 45 47 nan 47 nan 45 46 nan nan nan nan nan nan nan nan nan nan nan nan nan nan 41 40 40 nan nan nan 39 38 38 39 40 nan nan nan 39 nan 37 36 nan nan nan nan nan nan nan nan nan nan nan nan nan nan nan nan nan nan
24 27 27 26 27 29 30 31 30 31 32 32 31 33 33 35 36 36 37 36 37 36 36 36 34 36 40 45 47 nan nan 43 nan nan nan nan nan nan nan nan nan nan nan nan nan nan nan nan nan nan nan nan nan nan nan nan 37 38 38 39 39 39 39 39 39 nan nan nan nan nan nan nan nan nan 35 nan nan nan nan nan nan nan nan nan nan nan nan
19 23 27 27 28 29 30 31 32 33 34 34 34 34 34 35 36 37 38 39 39 39 35 35 37 38 41 49 49 nan nan nan nan nan nan nan nan nan nan nan nan nan nan nan nan nan nan nan nan nan nan nan nan nan nan nan nan nan nan nan nan 38 39 39 nan nan nan nan nan nan nan nan nan nan nan nan nan nan nan nan nan nan nan nan nan nan nan
18 26 28 27 28 30 31 31 31 33 35 35 36 35 36 36 36 37 38 38 41 39 39 39 37 38 40 47 49 46 nan nan nan nan nan nan nan nan nan nan nan nan nan nan nan nan nan nan nan nan nan nan nan nan nan nan nan nan 36 36 37 38 nan nan nan nan nan nan nan nan nan nan nan nan nan nan nan nan nan nan nan nan nan nan nan nan nan
24 27 26 26 26 25 27 31 32 33 34 34 36 37 37 39 40 39 39 41 41 42 43 41 42 44 46 51 nan nan nan nan nan nan nan 41 47 nan nan nan nan nan nan nan nan nan nan nan nan nan nan nan nan nan nan nan nan nan nan nan nan 39 nan nan nan nan nan nan nan nan nan nan nan nan nan nan nan nan nan nan nan nan nan nan nan nan nan
14 20 24 24 19 23 27 29 30 31 33 32 34 36 38 40 40 41 40 40 41 40 40 38 41 44 45 50 nan nan nan nan nan nan nan nan nan nan nan nan nan nan nan nan nan nan nan nan nan nan nan nan nan nan nan nan nan nan nan nan nan nan nan nan nan nan nan nan nan nan nan nan nan nan nan nan nan nan nan nan nan nan nan nan nan nan nan
nan 23 21 23 21 21 26 26 27 27 31 32 32 35 37 39 40 40 42 42 41 41 41 nan 39 43 46 49 nan nan nan nan nan nan nan nan nan nan nan nan nan nan nan nan nan nan nan nan nan nan nan nan nan nan nan nan nan nan nan nan nan nan nan nan nan nan nan nan nan nan nan nan nan nan nan nan nan nan nan nan nan nan nan nan nan nan nan
18 21 20 20 19 19 22 23 25 26 29 30 32 34 35 36 39 41 41 42 42 42 41 41 43 43 46 47 nan nan nan nan nan nan nan nan nan nan nan nan nan nan nan nan nan nan nan nan nan nan nan nan nan nan nan nan nan nan nan nan nan nan nan nan nan nan nan nan nan nan nan nan nan nan nan nan nan nan nan nan nan nan nan nan nan nan nan
19 21 18 18 17 17 19 20 24 26 29 29 30 32 35 36 38 39 41 41 41 42 42 41 44 44 44 47 nan 47 nan nan nan nan nan nan nan nan nan nan nan nan nan nan nan nan nan nan nan nan nan nan nan nan nan nan nan nan nan nan nan nan nan nan nan nan nan nan nan nan nan nan nan nan nan nan nan nan nan nan nan nan nan nan nan nan nan
19 19 18 17 17 17 18 19 22 26 28 28 29 31 34 35 38 38 41 41 41 41 43 42 43 46 45 46 47 47 49 nan nan nan nan nan nan nan nan nan nan nan nan nan nan nan nan nan nan nan nan nan nan nan nan nan nan nan nan nan nan nan nan nan nan nan nan nan nan nan nan nan nan nan nan nan nan nan nan nan nan nan nan nan nan nan nan
20 19 17 16 17 20 23 22 23 24 25 27 28 30 31 35 36 37 40 43 nan 42 43 43 43 44 46 48 48 47 47 nan nan nan nan nan nan nan nan nan nan nan nan nan nan nan nan nan nan nan nan nan nan nan nan nan nan nan nan nan nan nan nan nan nan nan nan nan nan nan nan nan nan nan nan nan nan nan nan nan nan nan nan nan nan nan nan
20 21 20 20 21 22 24 24 nan nan nan nan nan 28 30 30 35 38 40 43 44 44 43 44 45 43 44 45 46 46 nan 45 45 nan nan nan nan nan nan nan nan nan nan nan nan nan nan nan nan nan nan nan nan nan nan nan nan nan nan nan nan nan nan nan nan nan nan nan nan nan nan nan nan nan nan nan nan nan nan nan nan nan nan nan nan nan nan
nan nan nan nan nan nan nan 23 nan nan nan nan nan 28 28 30 32 36 40 43 43 41 43 nan 45 45 45 45 43 42 41 nan 41 nan nan nan nan nan nan nan nan nan nan nan nan nan nan nan nan nan nan nan nan nan nan nan nan nan nan nan nan nan nan nan nan nan nan nan nan nan nan nan nan nan nan nan nan nan nan nan nan nan nan nan nan nan nan
nan nan nan nan nan nan nan nan nan nan nan nan nan nan nan nan 31 33 36 39 42 44 45 nan nan 44 46 nan nan nan 43 nan 44 nan nan nan nan nan nan nan nan nan nan nan nan nan nan nan nan nan nan nan nan nan nan nan nan nan nan nan nan nan nan nan nan nan nan nan nan nan nan nan nan nan nan nan nan nan nan nan nan nan nan nan nan nan nan
nan nan nan nan nan nan nan nan nan nan nan nan nan nan nan nan nan nan nan nan 38 nan nan nan nan nan 45 45 45 nan nan 46 46 45 nan nan nan nan nan nan nan nan nan nan nan nan nan nan nan nan nan nan nan nan nan nan nan nan nan nan nan nan nan nan nan nan nan nan nan nan nan nan nan nan nan nan nan nan nan nan nan nan nan nan nan nan nan
nan nan nan nan nan nan nan nan nan nan nan nan nan nan nan nan nan nan nan nan nan nan nan nan nan 45 46 nan nan 45 46 47 48 nan nan nan nan nan nan nan nan nan nan nan nan nan nan nan nan nan nan nan nan nan nan nan nan nan nan nan nan nan nan nan nan nan nan nan nan nan nan nan nan nan nan nan nan nan nan nan nan nan nan nan nan nan nan
nan nan nan nan nan nan nan nan nan nan nan nan nan nan nan nan nan nan nan nan nan nan nan nan nan 43 nan nan nan nan nan nan 48 46 nan nan nan nan nan nan nan nan nan nan nan nan nan nan nan nan nan nan nan nan nan nan nan nan nan nan nan nan nan nan nan nan nan nan nan nan nan nan nan nan nan nan nan nan nan nan nan nan nan nan nan nan nan
nan nan nan nan nan nan nan nan nan nan nan nan nan nan nan nan nan nan nan nan nan nan nan nan 37 nan nan nan nan nan nan nan nan nan nan nan nan nan nan nan nan nan nan nan nan nan nan nan nan nan nan nan nan nan nan nan nan nan nan nan nan nan nan nan nan nan nan nan nan nan nan nan nan nan nan nan nan nan nan nan nan nan nan nan nan nan nan
nan nan nan nan nan nan nan nan nan nan nan nan nan nan nan nan nan nan nan nan nan nan nan nan nan 36 37 nan nan nan nan nan nan nan nan nan nan nan nan nan nan 42 nan nan nan nan nan nan nan nan nan nan nan nan nan nan nan nan nan nan nan nan nan nan nan nan nan nan nan nan nan nan nan nan nan nan nan nan nan nan nan nan nan nan nan nan nan
nan nan nan nan nan nan nan nan nan nan nan nan nan nan nan nan nan nan nan nan nan nan nan nan nan nan nan 36 37 nan 38 40 nan nan nan nan nan 47 47 nan 42 40 38 nan nan nan nan nan nan nan nan nan nan nan nan nan nan nan nan nan nan nan nan nan nan nan nan nan nan nan nan nan nan nan nan nan nan nan nan nan nan nan nan nan nan nan nan
nan nan nan nan nan nan nan nan nan nan nan nan nan nan nan nan nan nan nan nan nan nan nan nan nan nan nan nan 38 38 38 39 41 41 42 42 nan nan nan 47 46 43 40 nan nan nan nan nan nan nan nan nan nan nan nan nan nan nan nan nan nan nan nan nan nan nan nan nan nan nan nan nan nan nan nan nan nan nan nan nan nan nan nan nan nan nan nan
nan nan nan nan nan nan nan nan nan nan nan nan nan nan nan nan nan nan nan nan nan nan nan nan nan nan nan nan nan 38 39 40 40 41 42 44 45 nan nan 46 47 47 nan nan nan nan nan nan nan nan nan nan nan nan nan nan nan nan nan nan nan nan nan nan nan nan nan nan nan nan nan nan nan nan nan nan nan nan nan nan nan nan nan nan nan nan nan
nan nan nan nan nan nan nan nan nan nan nan nan nan nan nan nan nan nan nan nan nan nan nan nan nan nan nan nan nan nan 38 39 40 41 42 44 44 43 nan nan 44 46 52 59 nan nan nan nan nan nan nan nan nan nan nan nan nan nan nan nan nan nan nan nan nan nan nan nan nan nan nan nan nan nan nan nan nan nan nan nan nan nan nan nan nan nan nan
nan nan nan nan nan nan nan nan nan nan nan nan nan nan nan nan nan nan nan nan nan nan nan nan nan nan nan nan nan nan nan 38 39 40 41 44 43 nan nan 41 42 46 53 nan nan nan nan nan nan nan nan nan nan nan nan nan nan nan nan nan nan nan nan nan nan nan nan nan nan nan nan nan nan nan nan nan nan nan nan nan nan nan nan nan nan nan nan
nan nan nan nan nan nan nan nan nan nan nan nan nan nan nan nan nan nan nan nan nan nan nan nan nan nan nan nan nan nan nan 36 37 38 40 43 43 nan nan nan nan 45 49 48 nan nan nan nan nan nan nan nan nan nan nan nan nan nan nan nan nan nan nan nan nan nan nan nan nan nan nan nan nan nan nan nan nan nan nan nan nan nan nan nan nan nan nan
nan nan nan nan nan nan nan nan nan nan nan nan nan nan nan nan nan nan nan nan nan nan nan nan nan nan nan nan nan nan nan nan 35 35 36 38 40 41 41 42 45 45 nan nan nan nan nan nan nan nan nan nan nan nan nan nan nan nan nan nan nan nan nan nan nan nan nan nan nan nan nan nan nan nan nan nan nan nan nan nan nan nan nan nan nan nan nan
nan nan nan nan nan nan nan nan nan nan nan nan nan nan nan nan nan nan nan nan nan nan nan nan nan nan nan nan nan nan nan nan nan 32 33 34 35 37 40 44 47 nan nan nan nan nan nan nan nan nan nan nan nan nan nan nan nan nan nan nan nan nan nan nan nan nan nan nan nan nan nan nan nan nan nan nan nan nan nan nan nan nan nan nan nan nan nan
nan nan nan nan nan nan nan nan nan nan nan nan nan nan nan nan nan nan nan nan nan nan nan nan nan nan nan nan nan nan nan nan nan 32 33 32 32 34 36 39 45 nan nan 48 nan nan nan nan nan nan nan nan nan nan nan nan nan nan nan nan nan nan nan nan nan nan nan nan nan nan nan nan nan nan nan nan nan nan nan nan nan nan nan nan nan nan nan
nan nan nan nan nan nan nan nan nan nan nan nan nan nan nan nan nan nan nan nan nan nan nan nan nan nan nan nan nan nan nan nan nan nan 32 32 31 33 37 40 43 41 nan nan 47 nan nan nan nan nan nan nan nan nan nan nan nan nan nan nan nan nan nan nan nan nan nan nan nan nan nan nan nan nan nan nan nan nan nan nan nan nan nan nan nan nan nan
nan nan nan nan nan nan nan nan nan nan nan nan nan nan nan nan nan nan nan nan nan nan nan nan nan nan nan nan nan nan nan nan nan nan nan 32 33 35 38 39 39 nan nan nan nan nan nan nan nan nan nan nan nan nan nan nan nan nan nan nan nan nan nan nan nan nan nan nan nan nan nan nan nan nan nan nan nan nan nan nan nan nan nan nan nan nan nan
nan nan nan nan nan nan nan nan nan nan nan nan nan nan nan nan nan nan nan nan nan nan nan nan nan nan nan nan nan nan nan nan nan nan nan nan 33 35 40 41 40 nan nan nan nan nan nan nan nan nan nan nan nan nan nan nan nan nan nan nan nan nan nan nan nan nan nan nan nan nan nan nan nan nan nan nan nan nan nan nan nan nan nan nan nan nan nan
nan nan nan nan nan nan nan nan nan nan nan nan nan nan nan nan nan nan nan nan nan nan nan nan nan nan nan nan nan nan nan nan nan nan nan nan 32 35 37 35 37 36 nan nan nan nan nan nan nan nan nan nan nan nan nan nan nan nan nan nan nan nan nan nan nan nan nan nan nan nan nan nan nan nan nan nan nan nan nan nan nan nan nan nan nan nan nan
nan nan nan nan nan nan nan nan nan nan nan nan nan nan nan nan nan nan nan nan nan nan nan nan nan nan nan nan nan nan nan nan nan nan 36 35 35 35 35 36 35 35 37 40 nan nan nan nan nan nan nan nan nan nan nan nan nan nan nan nan nan nan nan nan nan nan nan nan nan nan nan nan nan nan nan nan nan nan nan nan nan nan nan nan nan nan nan
nan nan nan nan nan nan nan nan nan nan nan nan nan nan nan nan nan nan nan nan nan nan nan nan nan nan 22 nan nan nan nan nan nan nan 37 39 39 39 39 38 36 34 36 nan nan nan nan nan nan nan nan nan nan nan nan nan nan nan nan nan nan nan nan nan nan nan nan nan nan nan nan nan nan nan nan nan nan nan nan nan nan nan nan nan nan nan nan
nan nan nan nan nan nan nan nan nan nan nan nan nan nan nan nan nan nan nan nan nan nan 14 nan nan nan nan 29 30 32 32 32 33 34 36 37 38 38 37 38 38 38 40 nan nan nan nan nan nan nan nan nan nan nan nan nan nan nan nan nan nan nan nan nan nan nan nan nan nan nan nan nan nan nan nan nan nan nan nan nan nan nan nan nan nan nan nan
nan nan nan nan nan nan nan nan nan nan nan nan nan nan nan nan nan nan nan nan 12 14 16 19 nan 27 nan 28 27 25 24 23 25 29 30 32 35 35 38 39 37 39 nan nan nan nan nan nan nan nan nan nan nan nan nan nan nan nan nan nan nan nan nan nan nan nan nan nan nan nan nan nan nan nan nan nan nan nan nan nan nan nan nan nan nan nan nan
Wind_Direction
nan nan nan nan nan nan nan nan nan nan nan nan nan nan nan 219 nan 220 230 234 233 230 241 249 248 242 236 236 238 244 246 236 224 215 213 218 227 235 242 246 253 261 268 270 275 279 268 261 259 255 252 251 253 248 242 242 246 248 248 253 257 258 258 256 258 259 258 254 248 244 243 245 244 240 239 239 240 239 239 235 236 236 237 235 239 243 243
nan nan nan nan nan nan nan nan nan nan nan 227 226 227 227 227 227 225 230 234 237 230 242 248 250 245 240 238 241 249 255 245 229 217 215 222 229 232 235 238 242 247 255 261 269 276 274 267 263 262 260 260 262 257 249 245 245 246 247 251 254 258 259 254 252 253 256 255 253 249 246 246 248 248 245 243 243 245 243 241 236 233 232 235 235 241 243
nan nan nan nan nan nan nan nan nan nan nan 226 224 226 229 227 233 230 232 239 241 237 243 249 249 248 245 245 247 252 258 259 247 233 230 235 237 237 238 238 242 247 250 260 268 272 272 267 264 263 262 263 264 264 258 256 254 250 246 250 252 254 256 256 253 253 253 255 256 254 251 249 249 248 245 242 242 243 243 241 239 241 239 238 238 239 244
nan nan nan nan nan nan nan nan nan nan nan 220 220 223 224 223 230 233 235 241 243 243 243 249 250 251 251 249 250 253 257 263 257 248 247 247 244 243 243 244 244 247 252 255 259 260 257 253 250 250 252 254 261 262 262 262 259 257 253 249 251 251 253 256 257 256 253 256 258 259 256 253 251 249 246 244 241 240 239 243 245 243 244 242 240 238 243
nan nan nan nan nan nan nan nan 217 211 222 nan 225 228 227 226 226 228 232 236 236 240 246 250 251 252 252 251 251 252 255 260 259 252 254 257 254 251 249 250 251 252 254 257 259 258 257 256 254 253 254 257 260 263 269 266 262 259 257 254 252 253 255 255 256 255 255 254 254 254 254 252 249 248 248 246 243 242 242 239 240 244 245 246 247 245 242
nan nan nan nan nan nan nan nan 219 213 216 217 218 227 227 229 226 229 231 234 236 244 249 248 251 253 254 252 250 249 249 252 255 252 251 255 256 254 251 251 253 253 253 254 256 256 257 257 255 254 256 259 258 254 254 265 273 270 264 259 257 257 258 259 258 258 257 257 253 251 249 250 251 248 247 243 242 241 239 242 241 243 248 250 248 246 245
nan nan nan nan nan nan nan nan nan 214 213 215 218 227 231 231 233 231 232 235 237 241 246 250 252 252 254 254 254 251 249 247 250 252 253 250 251 252 254 252 251 251 253 254 254 255 256 255 254 255 255 256 255 255 258 258 262 269 262 254 254 254 256 258 260 260 261 261 261 260 258 259 259 257 256 251 248 248 251 250 249 248 245 248 247 247 248
nan nan nan nan nan nan nan nan nan nan 219 nan 214 234 230 227 227 230 232 236 239 245 248 251 253 256 256 254 252 250 250 246 246 248 249 251 252 251 250 253 254 254 253 253 253 252 252 251 251 250 252 254 256 258 259 262 263 263 262 261 256 251 251 251 251 252 255 256 258 259 259 257 261 262 259 254 251 245 243 239 240 246 244 243 247 245 246
nan nan nan nan 246 247 nan 235 227 nan nan nan 216 223 232 225 225 229 233 237 238 241 248 253 258 258 256 253 251 250 250 247 244 248 251 254 249 250 252 256 257 256 253 252 251 250 250 250 249 250 250 253 256 257 259 260 261 261 260 255 248 248 248 246 246 249 253 256 258 260 259 258 257 256 256 253 251 249 251 248 246 244 243 242 242 244 246
nan nan nan nan nan nan 245 237 nan nan nan 232 226 nan 235 228 223 221 228 236 235 240 246 252 257 262 260 258 257 255 255 253 252 249 251 253 251 251 253 253 256 256 254 253 253 252 252 249 248 249 250 252 255 257 259 260 260 256 253 253 251 249 250 251 250 253 255 254 255 256 253 253 255 253 251 251 252 251 254 251 247 246 244 242 240 244 246
nan nan nan nan nan 241 235 228 nan nan 236 240 246 240 242 nan nan 218 220 226 235 239 243 248 254 260 261 261 260 259 258 258 255 254 254 253 252 252 254 256 256 257 255 254 nan nan nan 250 248 248 250 250 252 255 257 259 258 254 253 254 252 250 251 252 251 253 258 259 256 252 250 250 252 253 255 257 252 250 251 249 247 243 241 243 243 240 242
nan nan nan nan nan 247 232 223 221 nan 230 242 249 249 250 232 nan 217 217 219 233 238 239 242 245 251 253 251 254 258 256 257 251 254 254 255 254 253 253 252 254 255 256 256 nan nan nan nan 249 249 248 248 247 246 250 255 256 253 249 248 250 252 252 251 248 248 250 253 252 248 247 245 246 247 251 252 250 250 252 250 247 243 242 244 247 244 245
nan nan nan nan 257 249 229 223 221 223 231 239 245 245 236 nan nan 217 217 218 222 238 240 241 240 239 231 235 252 254 254 257 253 251 251 254 255 254 252 251 252 255 256 nan nan nan nan nan 248 248 248 248 246 245 247 251 253 253 nan nan 248 246 246 250 252 251 251 254 256 255 254 256 255 249 nan 249 247 252 256 251 246 244 244 244 246 246 244
nan nan nan nan 250 243 227 223 231 222 230 245 240 nan nan 223 218 218 218 219 222 232 239 242 241 239 243 250 251 253 252 250 nan nan 249 246 252 251 251 252 251 250 251 253 252 nan nan nan 245 244 244 245 245 245 244 246 250 253 252 250 249 248 248 nan 255 255 nan nan 258 259 259 260 nan nan nan nan nan nan 258 257 255 255 254 249 246 245 244
nan nan nan nan nan 245 227 217 245 229 236 nan nan nan 226 226 222 221 223 227 227 227 233 239 242 238 243 251 250 251 252 253 nan 252 251 248 245 nan nan nan 247 247 248 248 247 nan nan nan nan nan 243 244 244 244 244 245 249 250 249 249 250 251 253 nan nan nan nan nan nan 258 258 nan nan nan nan nan nan nan 263 262 261 260 258 257 255 250 244
231 244 240 nan 240 237 233 231 239 238 240 nan 235 235 231 228 226 224 222 226 230 226 226 232 240 239 242 242 241 241 241 nan nan 247 247 nan nan nan nan nan nan nan 240 239 238 237 nan nan nan 239 241 nan 243 245 245 nan 251 254 254 251 252 253 254 254 nan nan 258 nan nan nan nan nan nan nan nan nan nan nan nan nan 261 260 nan 264 264 262 258
237 240 247 251 246 242 241 241 242 240 237 238 234 236 233 231 230 224 223 224 224 224 223 232 239 241 236 237 238 241 240 237 nan 245 nan 247 249 nan nan nan nan nan nan nan nan nan nan nan nan nan nan 243 246 246 nan nan nan 255 257 256 256 258 nan nan nan 255 nan 252 252 nan nan nan nan nan nan nan nan nan nan nan nan nan nan nan nan nan nan
255 253 246 255 254 247 245 246 244 239 236 236 233 232 232 233 230 226 224 221 224 226 228 236 240 244 243 240 241 nan nan 243 nan nan nan nan nan nan nan nan nan nan nan nan nan nan nan nan nan nan nan nan nan nan nan nan 253 256 257 257 258 259 261 260 260 nan nan nan nan nan nan nan nan nan 251 nan nan nan nan nan nan nan nan nan nan nan nan
256 256 257 253 255 252 246 245 243 241 238 234 232 232 231 229 230 227 225 223 224 226 232 242 245 246 246 246 246 nan nan nan nan nan nan nan nan nan nan nan nan nan nan nan nan nan nan nan nan nan nan nan nan nan nan nan nan nan nan nan nan 259 260 260 nan nan nan nan nan nan nan nan nan nan nan nan nan nan nan nan nan nan nan nan nan nan nan
255 256 259 255 259 254 248 244 242 239 237 233 232 233 231 229 231 230 227 221 226 226 232 241 245 246 247 249 246 246 nan nan nan nan nan nan nan nan nan nan nan nan nan nan nan nan nan nan nan nan nan nan nan nan nan nan nan nan 252 254 256 258 nan nan nan nan nan nan nan nan nan nan nan nan nan nan nan nan nan nan nan nan nan nan nan nan nan
263 267 263 258 268 260 255 248 244 242 237 234 233 231 231 230 229 229 230 229 227 226 230 236 240 244 246 249 nan nan nan nan nan nan nan 245 239 nan nan nan nan nan nan nan nan nan nan nan nan nan nan nan nan nan nan nan nan nan nan nan nan 257 nan nan nan nan nan nan nan nan nan nan nan nan nan nan nan nan nan nan nan nan nan nan nan nan nan
270 262 263 253 262 266 262 249 242 239 239 236 235 233 232 231 230 228 228 229 230 229 230 231 236 241 243 246 nan nan nan nan nan nan nan nan nan nan nan nan nan nan nan nan nan nan nan nan nan nan nan nan nan nan nan nan nan nan nan nan nan nan nan nan nan nan nan nan nan nan nan nan nan nan nan nan nan nan nan nan nan nan nan nan nan nan nan
nan 260 262 258 257 260 257 250 245 241 241 237 236 237 234 232 232 230 230 227 228 229 228 nan 229 235 240 244 nan nan nan nan nan nan nan nan nan nan nan nan nan nan nan nan nan nan nan nan nan nan nan nan nan nan nan nan nan nan nan nan nan nan nan nan nan nan nan nan nan nan nan nan nan nan nan nan nan nan nan nan nan nan nan nan nan nan nan
268 265 264 266 260 256 253 249 247 247 245 240 237 237 237 234 233 231 232 232 228 229 231 228 228 232 238 241 nan nan nan nan nan nan nan nan nan nan nan nan nan nan nan nan nan nan nan nan nan nan nan nan nan nan nan nan nan nan nan nan nan nan nan nan nan nan nan nan nan nan nan nan nan nan nan nan nan nan nan nan nan nan nan nan nan nan nan
256 259 262 263 265 263 258 255 253 252 248 242 239 237 237 235 235 232 232 235 234 230 230 233 232 230 235 239 nan 248 nan nan nan nan nan nan nan nan nan nan nan nan nan nan nan nan nan nan nan nan nan nan nan nan nan nan nan nan nan nan nan nan nan nan nan nan nan nan nan nan nan nan nan nan nan nan nan nan nan nan nan nan nan nan nan nan nan
256 259 260 262 269 274 269 268 268 255 248 246 243 240 239 239 239 235 236 233 236 235 234 232 236 237 235 240 241 245 246 nan nan nan nan nan nan nan nan nan nan nan nan nan nan nan nan nan nan nan nan nan nan nan nan nan nan nan nan nan nan nan nan nan nan nan nan nan nan nan nan nan nan nan nan nan nan nan nan nan nan nan nan nan nan nan nan
263 260 260 268 276 274 267 261 262 256 253 249 246 243 240 238 241 241 242 240 nan 237 237 238 237 241 241 242 244 247 247 nan nan nan nan nan nan nan nan nan nan nan nan nan nan nan nan nan nan nan nan nan nan nan nan nan nan nan nan nan nan nan nan nan nan nan nan nan nan nan nan nan nan nan nan nan nan nan nan nan nan nan nan nan nan nan nan
265 263 258 256 261 264 265 267 nan nan nan nan nan 246 243 243 240 239 241 242 242 238 238 238 240 243 245 245 246 249 nan 254 253 nan nan nan nan nan nan nan nan nan nan nan nan nan nan nan nan nan nan nan nan nan nan nan nan nan nan nan nan nan nan nan nan nan nan nan nan nan nan nan nan nan nan nan nan nan nan nan nan nan nan nan nan nan nan
nan nan nan nan nan nan nan 269 nan nan nan nan nan 250 244 242 242 240 240 240 240 241 241 nan 241 242 244 247 248 249 252 nan 254 nan nan nan nan nan nan nan nan nan nan nan nan nan nan nan nan nan nan nan nan nan nan nan nan nan nan nan nan nan nan nan nan nan nan nan nan nan nan nan nan nan nan nan nan nan nan nan nan nan nan nan nan nan nan
nan nan nan nan nan nan nan nan nan nan nan nan nan nan nan nan 243 241 239 238 239 239 241 nan nan 241 244 nan nan nan 252 nan 255 nan nan nan nan nan nan nan nan nan nan nan nan nan nan nan nan nan nan nan nan nan nan nan nan nan nan nan nan nan nan nan nan nan nan nan nan nan nan nan nan nan nan nan nan nan nan nan nan nan nan nan nan nan nan
nan nan nan nan nan nan nan nan nan nan nan nan nan nan nan nan nan nan nan nan 238 nan nan nan nan nan 244 245 247 nan nan 253 255 258 nan nan nan nan nan nan nan nan nan nan nan nan nan nan nan nan nan nan nan nan nan nan nan nan nan nan nan nan nan nan nan nan nan nan nan nan nan nan nan nan nan nan nan nan nan nan nan nan nan nan nan nan nan
nan nan nan nan nan nan nan nan nan nan nan nan nan nan nan nan nan nan nan nan nan nan nan nan nan 243 243 nan nan 249 250 251 255 nan nan nan nan nan nan nan nan nan nan nan nan nan nan nan nan nan nan nan nan nan nan nan nan nan nan nan nan nan nan nan nan nan nan nan nan nan nan nan nan nan nan nan nan nan nan nan nan nan nan nan nan nan nan
nan nan nan nan nan nan nan nan nan nan nan nan nan nan nan nan nan nan nan nan nan nan nan nan nan 240 nan nan nan nan nan nan 254 257 nan nan nan nan nan nan nan nan nan nan nan nan nan nan nan nan nan nan nan nan nan nan nan nan nan nan nan nan nan nan nan nan nan nan nan nan nan nan nan nan nan nan nan nan nan nan nan nan nan nan nan nan nan
nan nan nan nan nan nan nan nan nan nan nan nan nan nan nan nan nan nan nan nan nan nan nan nan 240 nan nan nan nan nan nan nan nan nan nan nan nan nan nan nan nan nan nan nan nan nan nan nan nan nan nan nan nan nan nan nan nan nan nan nan nan nan nan nan nan nan nan nan nan nan nan nan nan nan nan nan nan nan nan nan nan nan nan nan nan nan nan
nan nan nan nan nan nan nan nan nan nan nan nan nan nan nan nan nan nan nan nan nan nan nan nan nan 242 243 nan nan nan nan nan nan nan nan nan nan nan nan nan nan 262 nan nan nan nan nan nan nan nan nan nan nan nan nan nan nan nan nan nan nan nan nan nan nan nan nan nan nan nan nan nan nan nan nan nan nan nan nan nan nan nan nan nan nan nan nan
nan nan nan nan nan nan nan nan nan nan nan nan nan nan nan nan nan nan nan nan nan nan nan nan nan nan nan 244 246 nan 249 249 nan nan nan nan nan 250 251 nan 261 266 267 nan nan nan nan nan nan nan nan nan nan nan nan nan nan nan nan nan nan nan nan nan nan nan nan nan nan nan nan nan nan nan nan nan nan nan nan nan nan nan nan nan nan nan nan
nan nan nan nan nan nan nan nan nan nan nan nan nan nan nan nan nan nan nan nan nan nan nan nan nan nan nan nan 243 244 245 247 248 248 247 249 nan nan nan 254 256 260 264 nan nan nan nan nan nan nan nan nan nan nan nan nan nan nan nan nan nan nan nan nan nan nan nan nan nan nan nan nan nan nan nan nan nan nan nan nan nan nan nan nan nan nan nan
nan nan nan nan nan nan nan nan nan nan nan nan nan nan nan nan nan nan nan nan nan nan nan nan nan nan nan nan nan 243 245 246 248 248 248 251 253 nan nan 252 252 254 nan nan nan nan nan nan nan nan nan nan nan nan nan nan nan nan nan nan nan nan nan nan nan nan nan nan nan nan nan nan nan nan nan nan nan nan nan nan nan nan nan nan nan nan nan
nan nan nan nan nan nan nan nan nan nan nan nan nan nan nan nan nan nan nan nan nan nan nan nan nan nan nan nan nan nan 245 247 248 249 251 253 256 256 nan nan 249 248 248 252 nan nan nan nan nan nan nan nan nan nan nan nan nan nan nan nan nan nan nan nan nan nan nan nan nan nan nan nan nan nan nan nan nan nan nan nan nan nan nan nan nan nan nan
nan nan nan nan nan nan nan nan nan nan nan nan nan nan nan nan nan nan nan nan nan nan nan nan nan nan nan nan nan nan nan 246 247 249 250 253 255 nan nan 252 252 248 249 nan nan nan nan nan nan nan nan nan nan nan nan nan nan nan nan nan nan nan nan nan nan nan nan nan nan nan nan nan nan nan nan nan nan nan nan nan nan nan nan nan nan nan nan
nan nan nan nan nan nan nan nan nan nan nan nan nan nan nan nan nan nan nan nan nan nan nan nan nan nan nan nan nan nan nan 246 246 247 249 251 253 nan nan nan nan 251 252 251 nan nan nan nan nan nan nan nan nan nan nan nan nan nan nan nan nan nan nan nan nan nan nan nan nan nan nan nan nan nan nan nan nan nan nan nan nan nan nan nan nan nan nan
nan nan nan nan nan nan nan nan nan nan nan nan nan nan nan nan nan nan nan nan nan nan nan nan nan nan nan nan nan nan nan nan 248 248 250 252 254 252 252 249 253 252 nan nan nan nan nan nan nan nan nan nan nan nan nan nan nan nan nan nan nan nan nan nan nan nan nan nan nan nan nan nan nan nan nan nan nan nan nan nan nan nan nan nan nan nan nan
nan nan nan nan nan nan nan nan nan nan nan nan nan nan nan nan nan nan nan nan nan nan nan nan nan nan nan nan nan nan nan nan nan 251 252 253 254 253 250 247 250 nan nan nan nan nan nan nan nan nan nan nan nan nan nan nan nan nan nan nan nan nan nan nan nan nan nan nan nan nan nan nan nan nan nan nan nan nan nan nan nan nan nan nan nan nan nan
nan nan nan nan nan nan nan nan nan nan nan nan nan nan nan nan nan nan nan nan nan nan nan nan nan nan nan nan nan nan nan nan nan 254 254 254 255 255 252 249 251 nan nan 250 nan nan nan nan nan nan nan nan nan nan nan nan nan nan nan nan nan nan nan nan nan nan nan nan nan nan nan nan nan nan nan nan nan nan nan nan nan nan nan nan nan nan nan
nan nan nan nan nan nan nan nan nan nan nan nan nan nan nan nan nan nan nan nan nan nan nan nan nan nan nan nan nan nan nan nan nan nan 253 255 255 254 257 254 254 256 nan nan 247 nan nan nan nan nan nan nan nan nan nan nan nan nan nan nan nan nan nan nan nan nan nan nan nan nan nan nan nan nan nan nan nan nan nan nan nan nan nan nan nan nan nan
nan nan nan nan nan nan nan nan nan nan nan nan nan nan nan nan nan nan nan nan nan nan nan nan nan nan nan nan nan nan nan nan nan nan nan 248 247 247 253 257 255 nan nan nan nan nan nan nan nan nan nan nan nan nan nan nan nan nan nan nan nan nan nan nan nan nan nan nan nan nan nan nan nan nan nan nan nan nan nan nan nan nan nan nan nan nan nan
nan nan nan nan nan nan nan nan nan nan nan nan nan nan nan nan nan nan nan nan nan nan nan nan nan nan nan nan nan nan nan nan nan nan nan nan 252 248 251 257 256 nan nan nan nan nan nan nan nan nan nan nan nan nan nan nan nan nan nan nan nan nan nan nan nan nan nan nan nan nan nan nan nan nan nan nan nan nan nan nan nan nan nan nan nan nan nan
nan nan nan nan nan nan nan nan nan nan nan nan nan nan nan nan nan nan nan nan nan nan nan nan nan nan nan nan nan nan nan nan nan nan nan nan 254 254 253 251 252 259 nan nan nan nan nan nan nan nan nan nan nan nan nan nan nan nan nan nan nan nan nan nan nan nan nan nan nan nan nan nan nan nan nan nan nan nan nan nan nan nan nan nan nan nan nan
nan nan nan nan nan nan nan nan nan nan nan nan nan nan nan nan nan nan nan nan nan nan nan nan nan nan nan nan nan nan nan nan nan nan 255 253 252 250 250 253 260 265 255 249 nan nan nan nan nan nan nan nan nan nan nan nan nan nan nan nan nan nan nan nan nan nan nan nan nan nan nan nan nan nan nan nan nan nan nan nan nan nan nan nan nan nan nan
nan nan nan nan nan nan nan nan nan nan nan nan nan nan nan nan nan nan nan nan nan nan nan nan nan nan 293 nan nan nan nan nan nan nan 254 252 249 246 247 248 252 261 255 nan nan nan nan nan nan nan nan nan nan nan nan nan nan nan nan nan nan nan nan nan nan nan nan nan nan nan nan nan nan nan nan nan nan nan nan nan nan nan nan nan nan nan nan
nan nan nan nan nan nan nan nan nan nan nan nan nan nan nan nan nan nan nan nan nan nan 297 nan nan nan nan 301 299 295 287 276 265 259 255 252 248 245 243 244 248 250 251 nan nan nan nan nan nan nan nan nan nan nan nan nan nan nan nan nan nan nan nan nan nan nan nan nan nan nan nan nan nan nan nan nan nan nan nan nan nan nan nan nan nan nan nan
nan nan nan nan nan nan nan nan nan nan nan nan nan nan nan nan nan nan nan nan 262 283 300 309 nan 303 nan 310 309 303 292 279 265 260 254 247 244 242 242 239 239 248 nan nan nan nan nan nan nan nan nan nan nan nan nan nan nan nan nan nan nan nan nan nan nan nan nan nan nan nan nan nan nan nan nan nan nan nan nan nan nan nan nan nan nan nan nan